,,,PA_Meas_PMT16A,,PR_Meas_QMR101_102,,RH_Meas_QMH101,,SR_Meas_QMS101,,TA_Meas_QMH101,,GenWind,,GenWind,
date,time,status,PA,status,PR,status,RH,status,SR,status,TA,status,DirAvg,status,SpdAvg,
2014-01-06, 00:00:04,VALID,1008.25,VALID,0,VALID,104,VALID,0,VALID,23.4815,VALID,58,VALID,0,
2014-01-06, 00:01:04,VALID,1008.25,VALID,0,VALID,104,VALID,0,VALID,23.4602,VALID,58,VALID,0,
2014-01-06, 00:02:04,VALID,1008.25,VALID,0,VALID,104,VALID,0,VALID,23.4602,VALID,58,VALID,0,
2014-01-06, 00:03:04,VALID,1008.23,VALID,0,VALID,104,VALID,0,VALID,23.4602,VALID,59,VALID,0,
2014-01-06, 00:04:04,VALID,1008.2,VALID,0,VALID,104,VALID,0,VALID,23.4602,VALID,58,VALID,0,
2014-01-06, 00:05:04,VALID,1008.2,VALID,0,VALID,104,VALID,0,VALID,23.4602,VALID,58,VALID,0,
2014-01-06, 00:06:04,VALID,1008.2,VALID,0,VALID,104,VALID,0,VALID,23.4797,VALID,59,VALID,0,
2014-01-06, 00:07:04,VALID,1008.18,VALID,0,VALID,104,VALID,0.112112,VALID,23.4797,VALID,76,VALID,0,
2014-01-06, 00:08:04,VALID,1008.17,VALID,0,VALID,104,VALID,0,VALID,23.4797,VALID,89,VALID,0,
2014-01-06, 00:09:04,VALID,1008.13,VALID,0,VALID,104,VALID,0.112112,VALID,23.4992,VALID,89,VALID,0,
2014-01-06, 00:10:04,VALID,1008.13,VALID,0,VALID,104,VALID,0,VALID,23.4797,VALID,89,VALID,0,
2014-01-06, 00:11:04,VALID,1008.1,VALID,0,VALID,104,VALID,0,VALID,23.4584,VALID,89,VALID,0,
2014-01-06, 00:12:04,VALID,1008.07,VALID,0,VALID,104,VALID,0,VALID,23.4602,VALID,89,VALID,0,
2014-01-06, 00:13:04,VALID,1008.05,VALID,0,VALID,104,VALID,0,VALID,23.4407,VALID,89,VALID,0,
2014-01-06, 00:14:04,VALID,1008.04,VALID,0,VALID,104,VALID,0,VALID,23.4407,VALID,89,VALID,0,
2014-01-06, 00:15:04,VALID,1008.05,VALID,0,VALID,104,VALID,0,VALID,23.4407,VALID,89,VALID,0,
2014-01-06, 00:16:04,VALID,1008.02,VALID,0,VALID,104,VALID,0,VALID,23.4212,VALID,89,VALID,0,
2014-01-06, 00:17:04,VALID,1008.01,VALID,0,VALID,104,VALID,0,VALID,23.4,VALID,89,VALID,0,
2014-01-06, 00:18:04,VALID,1008,VALID,0,VALID,104,VALID,0,VALID,23.4212,VALID,89,VALID,0,
2014-01-06, 00:19:04,VALID,1008,VALID,0,VALID,104,VALID,0,VALID,23.4212,VALID,89,VALID,0,
2014-01-06, 00:20:04,VALID,1008.03,VALID,0,VALID,104,VALID,0,VALID,23.4017,VALID,89,VALID,0,
2014-01-06, 00:21:04,VALID,1008.01,VALID,0,VALID,104,VALID,0,VALID,23.4017,VALID,89,VALID,0,
2014-01-06, 00:22:04,VALID,1008.02,VALID,0,VALID,104,VALID,0,VALID,23.3823,VALID,89,VALID,0,
2014-01-06, 00:23:04,VALID,1008.02,VALID,0,VALID,104,VALID,0,VALID,23.384,VALID,89,VALID,0,
2014-01-06, 00:24:04,VALID,1008.01,VALID,0,VALID,104,VALID,0,VALID,23.3823,VALID,89,VALID,0,
2014-01-06, 00:25:04,VALID,1008.01,VALID,0,VALID,104,VALID,0,VALID,23.3628,VALID,89,VALID,0,
2014-01-06, 00:26:04,VALID,1007.98,VALID,0,VALID,104,VALID,0,VALID,23.3628,VALID,89,VALID,0,
2014-01-06, 00:27:04,VALID,1007.96,VALID,0,VALID,104,VALID,0,VALID,23.3628,VALID,89,VALID,0,
2014-01-06, 00:28:04,VALID,1007.97,VALID,0,VALID,104,VALID,0,VALID,23.3433,VALID,89,VALID,0,
2014-01-06, 00:29:04,VALID,1007.94,VALID,0,VALID,104,VALID,0,VALID,23.3238,VALID,89,VALID,0,
2014-01-06, 00:30:04,VALID,1007.95,VALID,0,VALID,104,VALID,0,VALID,23.3238,VALID,89,VALID,0,
2014-01-06, 00:31:04,VALID,1007.94,VALID,0,VALID,104,VALID,0,VALID,23.322,VALID,89,VALID,0,
2014-01-06, 00:32:04,VALID,1007.95,VALID,0,VALID,104,VALID,0,VALID,23.3238,VALID,89,VALID,0,
2014-01-06, 00:33:04,VALID,1007.96,VALID,0,VALID,104,VALID,0,VALID,23.3238,VALID,89,VALID,0,
2014-01-06, 00:34:04,VALID,1007.94,VALID,0,VALID,104,VALID,0,VALID,23.3238,VALID,89,VALID,0,
2014-01-06, 00:35:04,VALID,1007.92,VALID,0,VALID,104,VALID,0,VALID,23.3238,VALID,89,VALID,0,
2014-01-06, 00:36:04,VALID,1007.93,VALID,0,VALID,104,VALID,0,VALID,23.3433,VALID,90,VALID,0,
2014-01-06, 00:37:04,VALID,1007.92,VALID,0,VALID,104,VALID,0,VALID,23.3238,VALID,89,VALID,0,
2014-01-06, 00:38:04,VALID,1007.92,VALID,0,VALID,104,VALID,0,VALID,23.3433,VALID,88,VALID,0,
2014-01-06, 00:39:04,VALID,1007.91,VALID,0,VALID,104,VALID,0,VALID,23.3238,VALID,89,VALID,0,
2014-01-06, 00:40:04,VALID,1007.91,VALID,0,VALID,104,VALID,0,VALID,23.2848,VALID,89,VALID,0,
2014-01-06, 00:41:04,VALID,1007.92,VALID,0,VALID,104,VALID,0,VALID,23.2848,VALID,89,VALID,0,
2014-01-06, 00:42:04,VALID,1007.91,VALID,0,VALID,104,VALID,0,VALID,23.2866,VALID,89,VALID,0,
2014-01-06, 00:43:04,VALID,1007.9,VALID,0,VALID,104,VALID,0,VALID,23.2459,VALID,89,VALID,0,
2014-01-06, 00:44:04,VALID,1007.93,VALID,0,VALID,104,VALID,0,VALID,23.2459,VALID,89,VALID,0,
2014-01-06, 00:45:04,VALID,1007.94,VALID,0,VALID,104,VALID,0,VALID,23.2671,VALID,89,VALID,0,
2014-01-06, 00:46:04,VALID,1007.93,VALID,0,VALID,104,VALID,0,VALID,23.2654,VALID,89,VALID,0,
2014-01-06, 00:47:04,VALID,1007.96,VALID,0,VALID,104,VALID,0.112112,VALID,23.2459,VALID,89,VALID,0,
2014-01-06, 00:48:04,VALID,1007.94,VALID,0,VALID,104,VALID,0,VALID,23.2671,VALID,89,VALID,0,
2014-01-06, 00:49:04,VALID,1007.94,VALID,0,VALID,104,VALID,0,VALID,23.2459,VALID,89,VALID,0,
2014-01-06, 00:50:04,VALID,1007.94,VALID,0,VALID,104,VALID,0,VALID,23.2654,VALID,89,VALID,0,
2014-01-06, 00:51:04,VALID,1007.93,VALID,0,VALID,104,VALID,0,VALID,23.2459,VALID,89,VALID,0,
2014-01-06, 00:52:04,VALID,1007.97,VALID,0,VALID,104,VALID,0,VALID,23.2459,VALID,89,VALID,0,
2014-01-06, 00:53:04,VALID,1007.93,VALID,0,VALID,104,VALID,0,VALID,23.2654,VALID,89,VALID,0,
2014-01-06, 00:54:04,VALID,1007.94,VALID,0,VALID,104,VALID,0,VALID,23.2459,VALID,89,VALID,0,
2014-01-06, 00:55:04,VALID,1007.91,VALID,0,VALID,104,VALID,0,VALID,23.2476,VALID,89,VALID,0,
2014-01-06, 00:56:04,VALID,1007.93,VALID,0,VALID,104,VALID,0,VALID,23.2264,VALID,89,VALID,0,
2014-01-06, 00:57:04,VALID,1007.93,VALID,0,VALID,104,VALID,0,VALID,23.2459,VALID,89,VALID,0,
2014-01-06, 00:58:04,VALID,1007.92,VALID,0,VALID,104,VALID,0,VALID,23.2264,VALID,89,VALID,0,
2014-01-06, 00:59:04,VALID,1007.89,VALID,0,VALID,104,VALID,0,VALID,23.2459,VALID,89,VALID,0,
2014-01-06, 01:00:04,VALID,1007.88,VALID,0,VALID,104,VALID,0,VALID,23.2459,VALID,89,VALID,0,
2014-01-06, 01:01:04,VALID,1007.89,VALID,0,VALID,104,VALID,0.112112,VALID,23.2654,VALID,89,VALID,0,
2014-01-06, 01:02:04,VALID,1007.87,VALID,0,VALID,104,VALID,0,VALID,23.2866,VALID,89,VALID,0,
2014-01-06, 01:03:04,VALID,1007.89,VALID,0,VALID,104,VALID,0,VALID,23.2654,VALID,89,VALID,0,
2014-01-06, 01:04:04,VALID,1007.85,VALID,0,VALID,104,VALID,0,VALID,23.2831,VALID,89,VALID,0,
2014-01-06, 01:05:04,VALID,1007.87,VALID,0,VALID,104,VALID,0,VALID,23.3043,VALID,89,VALID,0,
2014-01-06, 01:06:04,VALID,1007.86,VALID,0,VALID,104,VALID,0,VALID,23.3043,VALID,89,VALID,0,
2014-01-06, 01:07:04,VALID,1007.87,VALID,0,VALID,104,VALID,0,VALID,23.3043,VALID,89,VALID,0,
2014-01-06, 01:08:04,VALID,1007.84,VALID,0,VALID,104,VALID,0,VALID,23.3238,VALID,89,VALID,0,
2014-01-06, 01:09:04,VALID,1007.85,VALID,0,VALID,104,VALID,0,VALID,23.3238,VALID,88,VALID,0,
2014-01-06, 01:10:04,VALID,1007.84,VALID,0,VALID,104,VALID,0,VALID,23.3238,VALID,89,VALID,0,
2014-01-06, 01:11:04,VALID,1007.84,VALID,0,VALID,104,VALID,0,VALID,23.3238,VALID,89,VALID,0,
2014-01-06, 01:12:04,VALID,1007.83,VALID,0,VALID,104,VALID,0,VALID,23.3238,VALID,89,VALID,0,
2014-01-06, 01:13:04,VALID,1007.82,VALID,0,VALID,104,VALID,0,VALID,23.3433,VALID,88,VALID,0,
2014-01-06, 01:14:04,VALID,1007.78,VALID,0,VALID,104,VALID,0,VALID,23.3433,VALID,88,VALID,0,
2014-01-06, 01:15:04,VALID,1007.8,VALID,0,VALID,104,VALID,0,VALID,23.3238,VALID,89,VALID,0,
2014-01-06, 01:16:04,VALID,1007.8,VALID,0,VALID,104,VALID,0,VALID,23.3238,VALID,89,VALID,0,
2014-01-06, 01:17:04,VALID,1007.76,VALID,0,VALID,104,VALID,0,VALID,23.3238,VALID,88,VALID,0,
2014-01-06, 01:18:04,VALID,1007.76,VALID,0,VALID,104,VALID,0,VALID,23.3433,VALID,89,VALID,0,
2014-01-06, 01:19:04,VALID,1007.74,VALID,0,VALID,104,VALID,0,VALID,23.3433,VALID,88,VALID,0,
2014-01-06, 01:20:04,VALID,1007.72,VALID,0,VALID,104,VALID,0,VALID,23.3238,VALID,89,VALID,0,
2014-01-06, 01:21:04,VALID,1007.68,VALID,0,VALID,104,VALID,0,VALID,23.3238,VALID,88,VALID,0,
2014-01-06, 01:22:04,VALID,1007.67,VALID,0,VALID,104,VALID,0.112112,VALID,23.3043,VALID,88,VALID,0,
2014-01-06, 01:23:04,VALID,1007.66,VALID,0,VALID,104,VALID,0,VALID,23.3238,VALID,88,VALID,0,
2014-01-06, 01:24:04,VALID,1007.63,VALID,0,VALID,104,VALID,0,VALID,23.3043,VALID,89,VALID,0,
2014-01-06, 01:25:04,VALID,1007.61,VALID,0,VALID,104,VALID,0,VALID,23.3238,VALID,89,VALID,0,
2014-01-06, 01:26:04,VALID,1007.58,VALID,0,VALID,104,VALID,0,VALID,23.3433,VALID,88,VALID,0,
2014-01-06, 01:27:04,VALID,1007.56,VALID,0,VALID,104,VALID,0,VALID,23.3433,VALID,88,VALID,0,
2014-01-06, 01:28:04,VALID,1007.52,VALID,0,VALID,104,VALID,0,VALID,23.3238,VALID,89,VALID,0,
2014-01-06, 01:29:04,VALID,1007.49,VALID,0,VALID,104,VALID,0,VALID,23.3043,VALID,88,VALID,0,
2014-01-06, 01:30:04,VALID,1007.47,VALID,0,VALID,104,VALID,0,VALID,23.3043,VALID,89,VALID,0,
2014-01-06, 01:31:04,VALID,1007.45,VALID,0,VALID,104,VALID,0,VALID,23.3238,VALID,88,VALID,0,
2014-01-06, 01:32:04,VALID,1007.43,VALID,0,VALID,104,VALID,0,VALID,23.3238,VALID,89,VALID,0,
2014-01-06, 01:33:04,VALID,1007.41,VALID,0,VALID,104,VALID,0,VALID,23.3433,VALID,88,VALID,0,
2014-01-06, 01:34:04,VALID,1007.4,VALID,0,VALID,104,VALID,0,VALID,23.3238,VALID,88,VALID,0,
2014-01-06, 01:35:04,VALID,1007.38,VALID,0,VALID,104,VALID,0,VALID,23.3433,VALID,88,VALID,0,
2014-01-06, 01:36:04,VALID,1007.38,VALID,0,VALID,104,VALID,0,VALID,23.3433,VALID,89,VALID,0,
2014-01-06, 01:37:04,VALID,1007.37,VALID,0,VALID,104,VALID,0,VALID,23.3433,VALID,89,VALID,0,
2014-01-06, 01:38:04,VALID,1007.38,VALID,0,VALID,104,VALID,0,VALID,23.3433,VALID,89,VALID,0,
2014-01-06, 01:39:04,VALID,1007.37,VALID,0,VALID,104,VALID,0,VALID,23.3433,VALID,89,VALID,0,
2014-01-06, 01:40:04,VALID,1007.37,VALID,0,VALID,104,VALID,0,VALID,23.3433,VALID,89,VALID,0,
2014-01-06, 01:41:04,VALID,1007.38,VALID,0,VALID,104,VALID,0,VALID,23.3433,VALID,88,VALID,0,
2014-01-06, 01:42:04,VALID,1007.38,VALID,0,VALID,104,VALID,0,VALID,23.3238,VALID,89,VALID,0,
2014-01-06, 01:43:04,VALID,1007.37,VALID,0,VALID,104,VALID,0,VALID,23.3433,VALID,88,VALID,0,
2014-01-06, 01:44:04,VALID,1007.36,VALID,0,VALID,104,VALID,0,VALID,23.3628,VALID,88,VALID,0,
2014-01-06, 01:45:04,VALID,1007.35,VALID,0,VALID,104,VALID,0,VALID,23.3433,VALID,89,VALID,0,
2014-01-06, 01:46:04,VALID,1007.34,VALID,0,VALID,104,VALID,0,VALID,23.3628,VALID,89,VALID,0,
2014-01-06, 01:47:04,VALID,1007.34,VALID,0,VALID,104,VALID,0,VALID,23.3628,VALID,88,VALID,0,
2014-01-06, 01:48:04,VALID,1007.3,VALID,0,VALID,104,VALID,0,VALID,23.3823,VALID,89,VALID,0,
2014-01-06, 01:49:04,VALID,1007.27,VALID,0,VALID,104,VALID,0.112112,VALID,23.3823,VALID,89,VALID,0,
2014-01-06, 01:50:04,VALID,1007.24,VALID,0,VALID,104,VALID,0,VALID,23.3628,VALID,89,VALID,0,
2014-01-06, 01:51:04,VALID,1007.21,VALID,0,VALID,104,VALID,0,VALID,23.3823,VALID,89,VALID,0,
2014-01-06, 01:52:04,VALID,1007.22,VALID,0,VALID,104,VALID,0,VALID,23.361,VALID,89,VALID,0,
2014-01-06, 01:53:04,VALID,1007.18,VALID,0,VALID,104,VALID,0,VALID,23.3823,VALID,89,VALID,0,
2014-01-06, 01:54:04,VALID,1007.18,VALID,0,VALID,104,VALID,0,VALID,23.3823,VALID,88,VALID,0,
2014-01-06, 01:55:04,VALID,1007.12,VALID,0,VALID,104,VALID,0,VALID,23.3823,VALID,89,VALID,0,
2014-01-06, 01:56:04,VALID,1007.12,VALID,0,VALID,104,VALID,0,VALID,23.3628,VALID,88,VALID,0,
2014-01-06, 01:57:04,VALID,1007.11,VALID,0,VALID,104,VALID,0,VALID,23.3628,VALID,88,VALID,0,
2014-01-06, 01:58:04,VALID,1007.1,VALID,0,VALID,104,VALID,0,VALID,23.384,VALID,89,VALID,0,
2014-01-06, 01:59:04,VALID,1007.07,VALID,0,VALID,104,VALID,0,VALID,23.3628,VALID,88,VALID,0,
2014-01-06, 02:00:04,VALID,1007.08,VALID,0,VALID,104,VALID,0,VALID,23.3628,VALID,89,VALID,0,
2014-01-06, 02:01:04,VALID,1007.07,VALID,0,VALID,104,VALID,0,VALID,23.3433,VALID,88,VALID,0,
2014-01-06, 02:02:04,VALID,1007.07,VALID,0,VALID,104,VALID,0,VALID,23.3238,VALID,89,VALID,0,
2014-01-06, 02:03:04,VALID,1007.09,VALID,0,VALID,104,VALID,0,VALID,23.3433,VALID,89,VALID,0,
2014-01-06, 02:04:04,VALID,1007.12,VALID,0,VALID,104,VALID,0,VALID,23.3238,VALID,89,VALID,0,
2014-01-06, 02:05:04,VALID,1007.12,VALID,0,VALID,104,VALID,0,VALID,23.3238,VALID,88,VALID,0,
2014-01-06, 02:06:04,VALID,1007.12,VALID,0,VALID,104,VALID,0,VALID,23.3238,VALID,89,VALID,0,
2014-01-06, 02:07:04,VALID,1007.13,VALID,0,VALID,104,VALID,0,VALID,23.3043,VALID,88,VALID,0,
2014-01-06, 02:08:04,VALID,1007.14,VALID,0,VALID,104,VALID,0,VALID,23.2848,VALID,88,VALID,0,
2014-01-06, 02:09:04,VALID,1007.16,VALID,0,VALID,104,VALID,0,VALID,23.2848,VALID,88,VALID,0,
2014-01-06, 02:10:04,VALID,1007.11,VALID,0,VALID,104,VALID,0,VALID,23.2848,VALID,89,VALID,0,
2014-01-06, 02:11:04,VALID,1007.14,VALID,0,VALID,104,VALID,0,VALID,23.2848,VALID,89,VALID,0,
2014-01-06, 02:12:04,VALID,1007.12,VALID,0,VALID,104,VALID,0,VALID,23.2848,VALID,88,VALID,0,
2014-01-06, 02:13:04,VALID,1007.1,VALID,0,VALID,104,VALID,0,VALID,23.2654,VALID,89,VALID,0,
2014-01-06, 02:14:04,VALID,1007.11,VALID,0,VALID,104,VALID,0,VALID,23.2654,VALID,88,VALID,0,
2014-01-06, 02:15:04,VALID,1007.1,VALID,0,VALID,104,VALID,0,VALID,23.2866,VALID,89,VALID,0,
2014-01-06, 02:16:04,VALID,1007.09,VALID,0,VALID,104,VALID,0,VALID,23.2459,VALID,88,VALID,0,
2014-01-06, 02:17:04,VALID,1007.11,VALID,0,VALID,104,VALID,0,VALID,23.2476,VALID,89,VALID,0,
2014-01-06, 02:18:04,VALID,1007.11,VALID,0,VALID,104,VALID,0,VALID,23.2264,VALID,89,VALID,0,
2014-01-06, 02:19:04,VALID,1007.09,VALID,0,VALID,104,VALID,0,VALID,23.2264,VALID,89,VALID,0,
2014-01-06, 02:20:04,VALID,1007.12,VALID,0,VALID,104,VALID,0,VALID,23.2069,VALID,89,VALID,0,
2014-01-06, 02:21:04,VALID,1007.14,VALID,0,VALID,104,VALID,0,VALID,23.2069,VALID,88,VALID,0,
2014-01-06, 02:22:04,VALID,1007.14,VALID,0,VALID,104,VALID,0,VALID,23.2069,VALID,88,VALID,0,
2014-01-06, 02:23:04,VALID,1007.16,VALID,0,VALID,104,VALID,0,VALID,23.1874,VALID,88,VALID,0,
2014-01-06, 02:24:04,VALID,1007.15,VALID,0,VALID,104,VALID,0,VALID,23.2069,VALID,89,VALID,0,
2014-01-06, 02:25:04,VALID,1007.15,VALID,0,VALID,104,VALID,0,VALID,23.1874,VALID,88,VALID,0,
2014-01-06, 02:26:04,VALID,1007.13,VALID,0,VALID,104,VALID,0,VALID,23.1874,VALID,89,VALID,0,
2014-01-06, 02:27:04,VALID,1007.14,VALID,0,VALID,104,VALID,0,VALID,23.1874,VALID,88,VALID,0,
2014-01-06, 02:28:04,VALID,1007.12,VALID,0,VALID,104,VALID,0,VALID,23.1679,VALID,88,VALID,0,
2014-01-06, 02:29:04,VALID,1007.13,VALID,0,VALID,104,VALID,0,VALID,23.1679,VALID,88,VALID,0,
2014-01-06, 02:30:04,VALID,1007.09,VALID,0,VALID,104,VALID,0,VALID,23.1679,VALID,88,VALID,0,
2014-01-06, 02:31:04,VALID,1007.07,VALID,0,VALID,104,VALID,0,VALID,23.1467,VALID,89,VALID,0,
2014-01-06, 02:32:04,VALID,1007.03,VALID,0,VALID,104,VALID,0,VALID,23.1679,VALID,88,VALID,0,
2014-01-06, 02:33:04,VALID,1007.08,VALID,0,VALID,104,VALID,0,VALID,23.1679,VALID,89,VALID,0,
2014-01-06, 02:34:04,VALID,1007.09,VALID,0,VALID,104,VALID,0,VALID,23.1485,VALID,89,VALID,0,
2014-01-06, 02:35:04,VALID,1007.08,VALID,0,VALID,104,VALID,0,VALID,23.1485,VALID,89,VALID,0,
2014-01-06, 02:36:04,VALID,1007.09,VALID,0,VALID,104,VALID,0,VALID,23.1679,VALID,88,VALID,0,
2014-01-06, 02:37:04,VALID,1007.12,VALID,0,VALID,104,VALID,0,VALID,23.1679,VALID,88,VALID,0,
2014-01-06, 02:38:04,VALID,1007.11,VALID,0,VALID,104,VALID,0,VALID,23.1679,VALID,88,VALID,0,
2014-01-06, 02:39:04,VALID,1007.11,VALID,0,VALID,104,VALID,0,VALID,23.1679,VALID,88,VALID,0,
2014-01-06, 02:40:04,VALID,1007.13,VALID,0,VALID,104,VALID,0,VALID,23.1485,VALID,88,VALID,0,
2014-01-06, 02:41:04,VALID,1007.15,VALID,0,VALID,104,VALID,0,VALID,23.1485,VALID,78,VALID,0,
2014-01-06, 02:42:04,VALID,1007.13,VALID,0,VALID,104,VALID,0,VALID,23.1485,VALID,78,VALID,0,
2014-01-06, 02:43:04,VALID,1007.12,VALID,0,VALID,104,VALID,0,VALID,23.129,VALID,27,VALID,0,
2014-01-06, 02:44:04,VALID,1007.11,VALID,0,VALID,104,VALID,0,VALID,23.129,VALID,27,VALID,0,
2014-01-06, 02:45:04,VALID,1007.1,VALID,0,VALID,104,VALID,0,VALID,23.129,VALID,27,VALID,0,
2014-01-06, 02:46:04,VALID,1007.11,VALID,0,VALID,104,VALID,0,VALID,23.1095,VALID,27,VALID,0,
2014-01-06, 02:47:04,VALID,1007.12,VALID,0,VALID,104,VALID,0,VALID,23.129,VALID,27,VALID,0,
2014-01-06, 02:48:04,VALID,1007.1,VALID,0,VALID,104,VALID,0,VALID,23.1095,VALID,27,VALID,0,
2014-01-06, 02:49:04,VALID,1007.11,VALID,0,VALID,104,VALID,0,VALID,23.1095,VALID,27,VALID,0,
2014-01-06, 02:50:04,VALID,1007.09,VALID,0,VALID,104,VALID,0,VALID,23.09,VALID,27,VALID,0,
2014-01-06, 02:51:04,VALID,1007.11,VALID,0,VALID,104,VALID,0,VALID,23.1095,VALID,27,VALID,0,
2014-01-06, 02:52:04,VALID,1007.1,VALID,0,VALID,104,VALID,0,VALID,23.1095,VALID,27,VALID,0,
2014-01-06, 02:53:04,VALID,1007.07,VALID,0,VALID,104,VALID,0,VALID,23.09,VALID,27,VALID,0,
2014-01-06, 02:54:04,VALID,1007.05,VALID,0,VALID,104,VALID,0,VALID,23.1095,VALID,27,VALID,0,
2014-01-06, 02:55:04,VALID,1007.04,VALID,0,VALID,104,VALID,0,VALID,23.1095,VALID,27,VALID,0,
2014-01-06, 02:56:04,VALID,1007.02,VALID,0,VALID,104,VALID,0,VALID,23.09,VALID,27,VALID,0,
2014-01-06, 02:57:04,VALID,1007.01,VALID,0,VALID,104,VALID,0.112112,VALID,23.09,VALID,27,VALID,0,
2014-01-06, 02:58:04,VALID,1006.98,VALID,0,VALID,104,VALID,0,VALID,23.1095,VALID,27,VALID,0,
2014-01-06, 02:59:04,VALID,1006.98,VALID,0,VALID,104,VALID,0,VALID,23.1095,VALID,27,VALID,0,
2014-01-06, 03:00:04,VALID,1007,VALID,0,VALID,104,VALID,0,VALID,23.1095,VALID,27,VALID,0,
2014-01-06, 03:01:04,VALID,1006.99,VALID,0,VALID,104,VALID,0,VALID,23.1095,VALID,27,VALID,0,
2014-01-06, 03:02:04,VALID,1007,VALID,0,VALID,104,VALID,0,VALID,23.1095,VALID,27,VALID,0,
2014-01-06, 03:03:04,VALID,1006.97,VALID,0,VALID,104,VALID,0,VALID,23.1077,VALID,27,VALID,0,
2014-01-06, 03:04:04,VALID,1007.01,VALID,0,VALID,104,VALID,0,VALID,23.1485,VALID,27,VALID,0,
2014-01-06, 03:05:04,VALID,1007.01,VALID,0,VALID,104,VALID,0.112112,VALID,23.1077,VALID,27,VALID,0,
2014-01-06, 03:06:04,VALID,1007.03,VALID,0,VALID,104,VALID,0.112112,VALID,23.1485,VALID,27,VALID,0,
2014-01-06, 03:07:04,VALID,1007.04,VALID,0,VALID,104,VALID,0,VALID,23.1467,VALID,27,VALID,0,
2014-01-06, 03:08:04,VALID,1007.06,VALID,0,VALID,104,VALID,0.112112,VALID,23.1874,VALID,27,VALID,0,
2014-01-06, 03:09:04,VALID,1007.05,VALID,0,VALID,104,VALID,0,VALID,23.1874,VALID,27,VALID,0,
2014-01-06, 03:10:04,VALID,1007.06,VALID,0,VALID,104,VALID,0.112112,VALID,23.1662,VALID,27,VALID,0,
2014-01-06, 03:11:04,VALID,1007.09,VALID,0,VALID,104,VALID,0.112112,VALID,23.1857,VALID,27,VALID,0,
2014-01-06, 03:12:04,VALID,1007.09,VALID,0,VALID,104,VALID,0.112112,VALID,23.1857,VALID,27,VALID,0,
2014-01-06, 03:13:04,VALID,1007.09,VALID,0,VALID,104,VALID,0.112112,VALID,23.2264,VALID,27,VALID,0,
2014-01-06, 03:14:04,VALID,1007.1,VALID,0,VALID,104,VALID,0.112112,VALID,23.2051,VALID,27,VALID,0,
2014-01-06, 03:15:04,VALID,1007.05,VALID,0,VALID,104,VALID,0,VALID,23.2264,VALID,27,VALID,0,
2014-01-06, 03:16:04,VALID,1007.02,VALID,0,VALID,104,VALID,0.112112,VALID,23.1857,VALID,29,VALID,0,
2014-01-06, 03:17:04,VALID,1006.98,VALID,0,VALID,104,VALID,0.112112,VALID,23.2069,VALID,29,VALID,0,
2014-01-06, 03:18:04,VALID,1006.95,VALID,0,VALID,104,VALID,0,VALID,23.1874,VALID,29,VALID,0,
2014-01-06, 03:19:04,VALID,1006.93,VALID,0,VALID,104,VALID,0.112112,VALID,23.1662,VALID,31,VALID,0,
2014-01-06, 03:20:04,VALID,1006.92,VALID,0,VALID,104,VALID,0,VALID,23.1662,VALID,31,VALID,0,
2014-01-06, 03:21:04,VALID,1006.9,VALID,0,VALID,104,VALID,0,VALID,23.1662,VALID,31,VALID,0,
2014-01-06, 03:22:04,VALID,1006.91,VALID,0,VALID,104,VALID,0,VALID,23.1662,VALID,31,VALID,0,
2014-01-06, 03:23:04,VALID,1006.89,VALID,0,VALID,104,VALID,0.112112,VALID,23.1467,VALID,31,VALID,0,
2014-01-06, 03:24:04,VALID,1006.87,VALID,0,VALID,104,VALID,0.112112,VALID,23.1467,VALID,31,VALID,0,
2014-01-06, 03:25:04,VALID,1006.9,VALID,0,VALID,104,VALID,0,VALID,23.1272,VALID,31,VALID,0,
2014-01-06, 03:26:04,VALID,1006.88,VALID,0,VALID,104,VALID,0,VALID,23.1077,VALID,31,VALID,0,
2014-01-06, 03:27:04,VALID,1006.89,VALID,0,VALID,104,VALID,0,VALID,23.1095,VALID,31,VALID,0,
2014-01-06, 03:28:04,VALID,1006.9,VALID,0,VALID,104,VALID,0,VALID,23.0883,VALID,31,VALID,0,
2014-01-06, 03:29:04,VALID,1006.88,VALID,0,VALID,104,VALID,0.112112,VALID,23.09,VALID,31,VALID,0,
2014-01-06, 03:30:04,VALID,1006.91,VALID,0,VALID,104,VALID,0,VALID,23.09,VALID,31,VALID,0,
2014-01-06, 03:31:04,VALID,1006.89,VALID,0,VALID,104,VALID,0,VALID,23.09,VALID,32,VALID,0,
2014-01-06, 03:32:04,VALID,1006.87,VALID,0,VALID,104,VALID,0,VALID,23.0493,VALID,32,VALID,0,
2014-01-06, 03:33:04,VALID,1006.87,VALID,0,VALID,104,VALID,0,VALID,23.0705,VALID,30,VALID,0,
2014-01-06, 03:34:04,VALID,1006.83,VALID,0,VALID,104,VALID,0,VALID,23.0511,VALID,30,VALID,0,
2014-01-06, 03:35:04,VALID,1006.81,VALID,0,VALID,104,VALID,0,VALID,23.0511,VALID,30,VALID,0,
2014-01-06, 03:36:04,VALID,1006.82,VALID,0,VALID,104,VALID,0.112112,VALID,23.0511,VALID,30,VALID,0,
2014-01-06, 03:37:04,VALID,1006.81,VALID,0,VALID,104,VALID,0,VALID,23.0316,VALID,30,VALID,0,
2014-01-06, 03:38:04,VALID,1006.8,VALID,0,VALID,104,VALID,0,VALID,23.0316,VALID,30,VALID,0,
2014-01-06, 03:39:04,VALID,1006.82,VALID,0,VALID,104,VALID,0.112112,VALID,23.0121,VALID,30,VALID,0,
2014-01-06, 03:40:04,VALID,1006.8,VALID,0,VALID,104,VALID,0,VALID,23.0121,VALID,30,VALID,0,
2014-01-06, 03:41:04,VALID,1006.79,VALID,0,VALID,104,VALID,0.112112,VALID,23.0121,VALID,30,VALID,0,
2014-01-06, 03:42:04,VALID,1006.8,VALID,0,VALID,104,VALID,0,VALID,22.9926,VALID,30,VALID,0,
2014-01-06, 03:43:04,VALID,1006.83,VALID,0,VALID,104,VALID,0,VALID,22.9926,VALID,30,VALID,0,
2014-01-06, 03:44:04,VALID,1006.84,VALID,0,VALID,104,VALID,0.112112,VALID,22.9519,VALID,30,VALID,0,
2014-01-06, 03:45:04,VALID,1006.89,VALID,0,VALID,104,VALID,0,VALID,22.9519,VALID,30,VALID,0,
2014-01-06, 03:46:04,VALID,1006.91,VALID,0,VALID,104,VALID,0.112112,VALID,22.9519,VALID,30,VALID,0,
2014-01-06, 03:47:04,VALID,1006.96,VALID,0,VALID,104,VALID,0,VALID,22.9324,VALID,30,VALID,0,
2014-01-06, 03:48:04,VALID,1006.98,VALID,0,VALID,104,VALID,0,VALID,22.9324,VALID,30,VALID,0,
2014-01-06, 03:49:04,VALID,1007.04,VALID,0,VALID,104,VALID,0.112112,VALID,22.9324,VALID,30,VALID,0,
2014-01-06, 03:50:04,VALID,1007.06,VALID,0,VALID,104,VALID,0.112112,VALID,22.9324,VALID,30,VALID,0,
2014-01-06, 03:51:04,VALID,1007.1,VALID,0,VALID,104,VALID,0.112112,VALID,22.9324,VALID,30,VALID,0,
2014-01-06, 03:52:04,VALID,1007.11,VALID,0,VALID,104,VALID,0,VALID,22.9536,VALID,30,VALID,0,
2014-01-06, 03:53:04,VALID,1007.12,VALID,0,VALID,104,VALID,0,VALID,22.9342,VALID,30,VALID,0,
2014-01-06, 03:54:04,VALID,1007.17,VALID,0,VALID,104,VALID,0,VALID,22.9129,VALID,30,VALID,0,
2014-01-06, 03:55:04,VALID,1007.2,VALID,0,VALID,104,VALID,0,VALID,22.9324,VALID,30,VALID,0,
2014-01-06, 03:56:04,VALID,1007.22,VALID,0,VALID,104,VALID,0.112112,VALID,22.9342,VALID,30,VALID,0,
2014-01-06, 03:57:04,VALID,1007.21,VALID,0,VALID,104,VALID,0,VALID,22.9129,VALID,30,VALID,0,
2014-01-06, 03:58:04,VALID,1007.25,VALID,0,VALID,104,VALID,0.112112,VALID,22.9147,VALID,30,VALID,0,
2014-01-06, 03:59:04,VALID,1007.22,VALID,0,VALID,104,VALID,0,VALID,22.8952,VALID,30,VALID,0,
2014-01-06, 04:00:04,VALID,1007.23,VALID,0,VALID,104,VALID,0.112112,VALID,22.8952,VALID,30,VALID,0,
2014-01-06, 04:01:04,VALID,1007.21,VALID,0,VALID,104,VALID,0.112112,VALID,22.8757,VALID,30,VALID,0,
2014-01-06, 04:02:04,VALID,1007.23,VALID,0,VALID,104,VALID,0,VALID,22.8545,VALID,30,VALID,0,
2014-01-06, 04:03:04,VALID,1007.25,VALID,0,VALID,104,VALID,0,VALID,22.8757,VALID,30,VALID,0,
2014-01-06, 04:04:04,VALID,1007.26,VALID,0,VALID,104,VALID,0,VALID,22.8775,VALID,30,VALID,0,
2014-01-06, 04:05:04,VALID,1007.28,VALID,0,VALID,104,VALID,0,VALID,22.8757,VALID,30,VALID,0,
2014-01-06, 04:06:04,VALID,1007.29,VALID,0,VALID,104,VALID,0,VALID,22.8562,VALID,30,VALID,0,
2014-01-06, 04:07:04,VALID,1007.31,VALID,0,VALID,104,VALID,0,VALID,22.8757,VALID,30,VALID,0,
2014-01-06, 04:08:04,VALID,1007.33,VALID,0,VALID,104,VALID,0,VALID,22.8562,VALID,30,VALID,0,
2014-01-06, 04:09:04,VALID,1007.33,VALID,0,VALID,104,VALID,0,VALID,22.8757,VALID,30,VALID,0,
2014-01-06, 04:10:04,VALID,1007.37,VALID,0,VALID,104,VALID,0,VALID,22.8562,VALID,30,VALID,0,